Home   Weather   Thunder Bay   Past weeks

Flag for Canada Past Weather in Thunder Bay, Ontario, Canada — Yesterday and Last 2 Weeks

Now
21 °F

Ice fog.


Feels Like: 21 °F
Forecast: 24 / 33 °F
Wind: 2 mph from Northwest

Location: Thunder Bay

Current Time: Jan 17, 2017 at 8:55:47 pm

Latest Report: Jan 17, 2017 at 8:22 pm


Visibility: 6 mi

Pressure: 29.88 "Hg

Humidity: 100%

Dew Point: 21 °F

Location of Thunder BayLocation

Past Weather in Thunder Bay — Graph

°F

Thunder Bay Temperature Yesterday

Maximum temperature yesterday: 34 °F (at 4:00 pm)
Minimum temperature yesterday: 1 °F (at 6:00 am)
Average temperature yesterday: 15 °F

High & Low Weather Summary for the Past Weeks

 TemperatureHumidityPressure
High34 °F (Jan 16, 4:00 pm)100% (Jan 3, 6:44 am)30.90 "Hg (Jan 3, 6:44 am)
Low-24 °F (Jan 12, 9:00 am)41% (Jan 13, 3:00 pm)29.17 "Hg (Jan 10, 5:00 pm)
Average6 °F76%30.09 "Hg
* Reported Jan 2 7:00 pm — Jan 17 7:00 pm, Thunder Bay, Weather by CustomWeather, © 2017

Note: Actual official high and low records may vary slightly from our data, if they occured in-between our weather recording intervals... More about our weather records

Advertising

Thunder Bay Weather History for the Previous 24 Hours

Scroll right to see more
 ConditionsComfort  
Time TempWeatherWind HumidityBarometerVisibility
7:00 pm
Tue, Jan 17
25 °FPassing clouds.No wind100%29.90 "Hg10 mi
6:00 pm27 °FPassing clouds.5 mph100%29.91 "Hg10 mi
5:00 pm30 °FPartly sunny.3 mph86%29.93 "Hg10 mi
4:00 pm34 °FPartly sunny.2 mph75%29.93 "Hg10 mi
3:00 pm34 °FPassing clouds.No wind75%29.93 "Hg8 mi
2:13 pm32 °FIce fog.No wind80%29.94 "Hg6 mi
1:00 pm30 °FIce fog.5 mph93%29.98 "Hg5 mi
12:16 pm28 °FIce fog.3 mph93%29.99 "Hg3 mi
11:00 am27 °FIce fog.7 mph100%30.02 "Hg2 mi
10:34 am27 °FIce fog.6 mph93%30.02 "Hg3 mi
10:00 am27 °FIce fog.6 mph93%30.02 "Hg4 mi
9:00 am25 °FIce fog.3 mph93%30.01 "Hg5 mi
8:26 am25 °FIce fog.5 mph86%30.01 "Hg6 mi
8:00 am25 °FLow clouds.5 mph86%30.02 "Hg15 mi
7:00 am23 °FLow clouds.3 mph93%30.02 "Hg8 mi
6:00 am23 °FOvercast.3 mph86%30.04 "Hg10 mi
5:00 am23 °FOvercast.5 mph86%30.07 "Hg15 mi
4:00 am25 °FLow clouds.5 mph80%30.08 "Hg10 mi
3:00 am23 °FLow clouds.2 mph86%30.07 "Hg10 mi
2:00 am23 °FLow clouds.6 mph86%30.09 "Hg15 mi
1:00 am23 °FLow clouds.3 mph86%30.08 "Hg10 mi
12:00 am21 °FLow clouds.2 mph86%30.10 "Hg10 mi
11:00 pm
Mon, Jan 16
21 °FOvercast.No wind86%30.11 "Hg10 mi
10:00 pm18 °FOvercast.No wind86%30.13 "Hg10 mi
9:00 pm16 °FPassing clouds.No wind93%30.15 "Hg10 mi
8:00 pm18 °FPassing clouds.No wind93%30.16 "Hg15 mi
Weather by CustomWeather, © 2017

See weather overviewHow to use our weather pages